Terug naar catalogus

STARLINK-36313

ActiefCommunicatieSSO
NORAD 68156·PAYLOAD·🇺🇸 United States

Gelanceerd Mar 13, 2026 vanaf Vandenberg Space Force Base

Loading…

Volgende Passages (komende 24 uur)

TLE

VersSource: CelesTrak SupGP

Epoch: Sep 14, 2026, 21:22 UTC

1 68156C 26049Q   26257.89076389  .00030800  00000+0  95631-3 0  2573
2 68156  97.2841 277.8716 0001434  88.4059  57.1863 15.33416801    16

Volg STARLINK-36313 in realtime met AllMySat

Download on the App Store